Hourly Weather Sharan

Today, 10 August, Monday

Time Temperature Precipitation Wind Pressure Humidity
00:00 +26°C° 0 mm 2 mps 586 mmHg 57%
01:00 +26°C° 0 mm 2 mps 586 mmHg 57%
02:00 +25°C° 0 mm 1 mps 586 mmHg 58%
03:00 +25°C° 0 mm 1 mps 586 mmHg 60%
04:00 +24°C° 0 mm 1 mps 585 mmHg 62%
05:00 +24°C° 0 mm 1 mps 585 mmHg 64%
06:00 +24°C° 0 mm 1 mps 586 mmHg 62%
07:00 +24°C° 0 mm 1 mps 586 mmHg 60%
08:00 +23°C° 0 mm 0 mps 586 mmHg 58%
09:00 +26°C° 0 mm 1 mps 587 mmHg 52%
10:00 +27°C° 0 mm 1 mps 587 mmHg 46%
11:00 +28°C° 0 mm 1 mps 587 mmHg 42%
12:00 +30°C° 0 mm 2 mps 588 mmHg 37%
13:00 +31°C° 0 mm 3 mps 588 mmHg 31%
14:00 +33°C° 0 mm 4 mps 588 mmHg 26%
15:00 +33°C° 0 mm 5 mps 587 mmHg 28%
16:00 +33°C° 0 mm 6 mps 587 mmHg 29%
17:00 +34°C° 0 mm 6 mps 587 mmHg 23%
18:00 +32°C° 0 mm 6 mps 587 mmHg 31%
19:00 +30°C° 0 mm 7 mps 586 mmHg 39%
20:00 +28°C° 0 mm 7 mps 586 mmHg 47%
21:00 +28°C° 0 mm 6 mps 586 mmHg 51%
22:00 +27°C° 0 mm 5 mps 586 mmHg 55%
23:00 +26°C° 0 mm 4 mps 586 mmHg 59%

Tomorrow, 11 August, Tuesday

Time Temperature Precipitation Wind Pressure Humidity
00:00 +26°C° 0.1 mm 3 mps 586 mmHg 60%
01:00 +25°C° 0.1 mm 2 mps 586 mmHg 61%
02:00 +25°C° 0.1 mm 1 mps 586 mmHg 62%
03:00 +25°C° 0.1 mm 1 mps 586 mmHg 64%
04:00 +24°C° 0.1 mm 1 mps 586 mmHg 65%
05:00 +22°C° 0.1 mm 0 mps 585 mmHg 67%
06:00 +22°C° 0 mm 0 mps 586 mmHg 65%
07:00 +23°C° 0 mm 0 mps 586 mmHg 63%
08:00 +23°C° 0 mm 0 mps 587 mmHg 61%
09:00 +26°C° 0 mm 1 mps 587 mmHg 53%
10:00 +28°C° 0 mm 1 mps 587 mmHg 45%
11:00 +29°C° 0 mm 1 mps 587 mmHg 37%
12:00 +30°C° 0 mm 2 mps 587 mmHg 32%
13:00 +32°C° 0 mm 2 mps 588 mmHg 27%
14:00 +34°C° 0 mm 3 mps 588 mmHg 21%
15:00 +34°C° 0 mm 3 mps 588 mmHg 19%
16:00 +35°C° 0 mm 4 mps 587 mmHg 17%
17:00 +35°C° 0 mm 4 mps 587 mmHg 15%
18:00 +34°C° 0 mm 5 mps 587 mmHg 21%
19:00 +32°C° 0 mm 5 mps 587 mmHg 27%
20:00 +30°C° 0 mm 6 mps 586 mmHg 33%
21:00 +29°C° 0 mm 5 mps 586 mmHg 39%
22:00 +28°C° 0 mm 5 mps 586 mmHg 46%
23:00 +27°C° 0 mm 5 mps 586 mmHg 53%

Day after tomorrow, 12 August, Wednesday

Time Temperature Precipitation Wind Pressure Humidity
00:00 +27°C° 0 mm 3 mps 586 mmHg 55%
01:00 +26°C° 0 mm 2 mps 586 mmHg 57%
02:00 +26°C° 0 mm 1 mps 586 mmHg 59%
03:00 +25°C° 0 mm 1 mps 586 mmHg 57%
04:00 +25°C° 0 mm 1 mps 585 mmHg 55%
05:00 +25°C° 0 mm 1 mps 585 mmHg 53%
06:00 +25°C° 0 mm 2 mps 585 mmHg 42%
07:00 +26°C° 0 mm 2 mps 586 mmHg 32%
08:00 +26°C° 0 mm 2 mps 586 mmHg 22%
09:00 +27°C° 0 mm 2 mps 586 mmHg 21%
10:00 +29°C° 0 mm 1 mps 587 mmHg 20%
11:00 +30°C° 0 mm 1 mps 587 mmHg 18%
12:00 +31°C° 0 mm 1 mps 587 mmHg 17%
13:00 +32°C° 0 mm 2 mps 587 mmHg 16%
14:00 +34°C° 0 mm 2 mps 587 mmHg 14%
15:00 +35°C° 0 mm 3 mps 587 mmHg 13%
16:00 +35°C° 0 mm 3 mps 587 mmHg 12%
17:00 +36°C° 0 mm 4 mps 587 mmHg 11%
18:00 +35°C° 0 mm 5 mps 587 mmHg 14%
19:00 +34°C° 0 mm 5 mps 587 mmHg 17%
20:00 +32°C° 0 mm 6 mps 587 mmHg 20%
21:00 +30°C° 0 mm 5 mps 586 mmHg 26%
22:00 +29°C° 0 mm 3 mps 586 mmHg 32%
23:00 +28°C° 0 mm 2 mps 586 mmHg 38%

13 August, Thursday

Time Temperature Precipitation Wind Pressure Humidity
00:00 +27°C° 0 mm 2 mps 586 mmHg 43%
01:00 +27°C° 0 mm 2 mps 586 mmHg 48%
02:00 +26°C° 0 mm 2 mps 585 mmHg 53%
03:00 +25°C° 0 mm 2 mps 585 mmHg 52%
04:00 +25°C° 0 mm 1 mps 585 mmHg 52%
05:00 +24°C° 0 mm 1 mps 585 mmHg 52%
06:00 +25°C° 0 mm 1 mps 585 mmHg 45%
07:00 +26°C° 0 mm 1 mps 586 mmHg 39%
08:00 +26°C° 0 mm 2 mps 586 mmHg 32%
09:00 +28°C° 0 mm 2 mps 586 mmHg 27%
10:00 +29°C° 0 mm 2 mps 587 mmHg 22%
11:00 +31°C° 0 mm 2 mps 587 mmHg 16%
12:00 +32°C° 0 mm 2 mps 587 mmHg 14%
13:00 +34°C° 0 mm 2 mps 587 mmHg 11%
14:00 +35°C° 0 mm 2 mps 587 mmHg 8%
15:00 +35°C° 0 mm 2 mps 587 mmHg 7%
16:00 +34°C° 0 mm 1 mps 586 mmHg 7%
17:00 +35°C° 0 mm 1 mps 586 mmHg 6%
18:00 +33°C° 0 mm 1 mps 586 mmHg 9%
19:00 +32°C° 0 mm 2 mps 586 mmHg 13%
20:00 +31°C° 0 mm 2 mps 586 mmHg 16%
21:00 +30°C° 0 mm 2 mps 586 mmHg 22%
22:00 +29°C° 0 mm 2 mps 586 mmHg 27%
23:00 +28°C° 0 mm 2 mps 586 mmHg 32%

14 August, Friday

Time Temperature Precipitation Wind Pressure Humidity
00:00 +27°C° 0 mm 2 mps 586 mmHg 32%
01:00 +26°C° 0 mm 1 mps 586 mmHg 33%
02:00 +26°C° 0 mm 1 mps 585 mmHg 33%
03:00 +25°C° 0 mm 1 mps 585 mmHg 31%
04:00 +24°C° 0 mm 1 mps 585 mmHg 30%
05:00 +24°C° 0 mm 1 mps 585 mmHg 28%
06:00 +24°C° 0 mm 1 mps 585 mmHg 27%
07:00 +25°C° 0 mm 2 mps 585 mmHg 25%
08:00 +25°C° 0 mm 2 mps 586 mmHg 23%
09:00 +27°C° 0 mm 2 mps 586 mmHg 22%
10:00 +28°C° 0 mm 2 mps 586 mmHg 21%
11:00 +29°C° 0 mm 1 mps 587 mmHg 20%
12:00 +30°C° 0 mm 2 mps 587 mmHg 17%
13:00 +31°C° 0 mm 2 mps 587 mmHg 14%
14:00 +32°C° 0 mm 2 mps 587 mmHg 12%
15:00 +33°C° 0 mm 1 mps 586 mmHg 11%
16:00 +33°C° 0 mm 1 mps 586 mmHg 10%
17:00 +34°C° 0 mm 1 mps 586 mmHg 9%
18:00 +33°C° 0 mm 1 mps 586 mmHg 12%
19:00 +32°C° 0 mm 1 mps 586 mmHg 16%
20:00 +31°C° 0 mm 1 mps 586 mmHg 20%
21:00 +30°C° 0 mm 2 mps 586 mmHg 31%
22:00 +28°C° 0 mm 2 mps 586 mmHg 43%
23:00 +27°C° 0 mm 2 mps 586 mmHg 54%

15 August, Saturday

Time Temperature Precipitation Wind Pressure Humidity
00:00 +27°C° 0 mm 2 mps 586 mmHg 56%
01:00 +26°C° 0 mm 1 mps 585 mmHg 57%
02:00 +25°C° 0 mm 1 mps 585 mmHg 59%
03:00 +25°C° 0 mm 1 mps 585 mmHg 58%
04:00 +25°C° 0 mm 1 mps 585 mmHg 57%
05:00 +24°C° 0 mm 1 mps 585 mmHg 56%
06:00 +25°C° 0 mm 1 mps 585 mmHg 50%
07:00 +25°C° 0 mm 1 mps 585 mmHg 45%
08:00 +26°C° 0 mm 1 mps 585 mmHg 39%
09:00 +27°C° 0 mm 1 mps 586 mmHg 35%
10:00 +28°C° 0 mm 1 mps 586 mmHg 31%
11:00 +29°C° 0 mm 1 mps 586 mmHg 27%
12:00 +30°C° 0 mm 1 mps 586 mmHg 23%
13:00 +32°C° 0 mm 1 mps 586 mmHg 19%
14:00 +33°C° 0 mm 1 mps 586 mmHg 15%
15:00 +33°C° 0 mm 1 mps 586 mmHg 14%
16:00 +34°C° 0 mm 1 mps 586 mmHg 13%
17:00 +34°C° 0 mm 1 mps 586 mmHg 11%
18:00 +34°C° 0 mm 3 mps 586 mmHg 21%
19:00 +32°C° 0 mm 4 mps 586 mmHg 31%
20:00 +30°C° 0 mm 5 mps 586 mmHg 40%
21:00 +29°C° 0 mm 4 mps 586 mmHg 45%
22:00 +29°C° 0 mm 3 mps 586 mmHg 50%
23:00 +28°C° 0 mm 3 mps 586 mmHg 55%
Show more